Content
SEND FEEDBACK

Daily
Averages
Monthly
Summary
United States of America

BAYSIDE, NEW YORK


Home > North America > United States > New York
Elevation: 11 feet     Latitude: 40 46N     Longitude: 073 54W

WEATHER
 
SELECT A DAY
Number of Records: 193,857;   Date Range: 1/1/95 - 10/18/14
 
SHARE

PRINT THIS DATA

[ ← Previous Day ]
WEATHER ALMANAC - AUGUST 15, 2014
[ Next Day → ]
[ °C ]   °F
Weather ElementAverageHighLow
Temperature68.7 °F72 °F (3:51 am)64 °F (6:51 am)
Dewpoint48.9 °F54 °F (3:51 am)44.6 °F (9:51 am)
Humidity49.6 %61 % (3:51 am)43 % (11:51 am)
Barometer29.93 in29.98 in (9:51 pm)29.88 in (2:51 am)
Wind Speed10 mph16.1 mph (12:51 am)
Wind Gust23 mph (7:12 am)
Weather ElementAverage
Visibility10 mi
Wind DirectionWNW (297.5 °)

Weather ElementTotal
Precipitation---
Cooling Degree Days3 (Base 65)
Growing Degree Days18 (Base 50)
Averaged from 24 records on August 15, 2014
WEATHER CONDITIONS BREAKOUT
WIND DIRECTION BREAKOUT
WEATHER BY HOUR - AUGUST 15, 2014
[ °C ]   °F
Local TimeTemperatureDewpointHumidityBarometerVisibilityWind DirectionWind SpeedGust SpeedPrecipitationEventsConditions
12:51 AM68.0 °F54.0 °F61 %29.89 in10.0 miNW (320°)11.5 mphClear
1:51 AM66.9 °F51.1 °F57 %29.88 in10.0 miNW (320°)9.2 mphClear
2:51 AM66.2 °F50.0 °F56 %29.88 in10.0 miNNW (330°)8.1 mphClear
3:51 AM64.9 °F48.9 °F56 %29.88 in10.0 miNW (310°)9.2 mphClear
4:51 AM64.0 °F48.0 °F56 %29.89 in10.0 miNNW (330°)8.1 mphClear
5:51 AM64.0 °F48.0 °F56 %29.91 in10.0 miNW (310°)10.4 mphPartly Cloudy
6:51 AM64.0 °F48.9 °F58 %29.92 in10.0 miWNW (290°)9.2 mphMostly Cloudy
7:51 AM64.9 °F48.0 °F54 %29.93 in10.0 miWNW (300°)6.9 mphMostly Cloudy
8:51 AM66.9 °F48.0 °F51 %29.94 in10.0 miNW (310°)6.9 mphScattered Clouds
9:51 AM68.0 °F44.6 °F43 %29.94 in10.0 miWNW (290°)11.5 mph23.0 mphScattered Clouds
10:51 AM69.8 °F46.4 °F43 %29.93 in10.0 miWest (260°)16.1 mph23.0 mphMostly Cloudy
11:51 AM71.1 °F48.0 °F44 %29.93 in10.0 miWest (280°)10.4 mphMostly Cloudy
12:51 PM72.0 °F48.0 °F43 %29.93 in10.0 miWest (280°)10.4 mph19.6 mphMostly Cloudy
1:51 PM71.6 °F50.0 °F46 %29.93 in10.0 miNNW (330°)11.5 mphMostly Cloudy
2:51 PM72.0 °F48.9 °F44 %29.93 in10.0 miWNW (290°)11.5 mph23.0 mphMostly Cloudy
3:51 PM72.0 °F48.9 °F44 %29.93 in10.0 miWNW (290°)12.7 mph18.4 mphMostly Cloudy
4:51 PM71.6 °F48.2 °F43 %29.93 in10.0 miWNW (300°)12.7 mphMostly Cloudy
5:51 PM71.1 °F50.0 °F47 %29.94 in10.0 miWNW (300°)8.1 mphOvercast
6:51 PM70.0 °F50.0 °F49 %29.94 in10.0 miWNW (300°)15.0 mph19.6 mphOvercast
7:51 PM70.0 °F50.0 °F49 %29.95 in10.0 miWest (270°)11.5 mphMostly Cloudy
8:51 PM70.0 °F51.1 °F51 %29.96 in10.0 miNW (320°)9.2 mphMostly Cloudy
9:51 PM70.0 °F48.9 °F47 %29.98 in10.0 miWest (280°)6.9 mphMostly Cloudy
10:51 PM69.8 °F48.2 °F46 %29.98 in10.0 miWest (270°)5.8 mphOvercast
11:51 PM69.8 °F48.2 °F46 %29.98 in10.0 miWest (260°)6.9 mphMostly Cloudy
Hourly data recorded from KLGA, located miles away from Bayside, New York







STORIES FROM OUR PARTNERS